LAUNCHERONE R/B (51101 NORAD) Tracking and Keplerian Element Data

This shows tracking and keplerian element data for the satellite.

Feedback or suggestion? Click here.




ElementValue
Catalog51101
NameLAUNCHERONE R/B
Epoch Orbit449
Epoch Day43.20616221
Epoch Year2022
RAAN29.1248
Inclination45.0267
Eccentricity0.0051645
Argument of Perigee16.2976
Mean Anonmoly343.9557
Mean Motion15.35816482
Decay Rate0.00015262
L11 51101U 22003H 22043.20616221 .00015262 00000+0 41923-3 0 9993
L22 51101 45.0267 29.1248 0051645 16.2976 343.9557 15.35816482 4498



Live tracking and technical data element details for LAUNCHERONE R/B (NORAD 51101). LAUNCHERONE R/B can be tracked NOW for your location showing map with azimuth and elevation plus other details from your city location.







IsCatalogInMostPopularTable: catalog: 51101, numindb: 39
Update: records affected: 1



GetName: 51101 LAUNCHERONE R/B

Hit Count: updated at: Sun, 28 May 2023 19:48:32 GMT